This is the latest recevied weather packets stored in our database for station/object KM6YFK-13. If no packets are shown the sender has not sent any weather packets the latest 10 day(s).
| Time | Temp. | Humidity | Pressure | Rain* | Wind** | Luminosity | Snow |
|---|---|---|---|---|---|---|---|
| 1777766008 | 21.67° C | 94% | 1010.8 hPa | 0 mm | - | 6 W/m² | - |
| 1777765707 | 21.67° C | 94% | 1010.8 hPa | 0 mm | - | 6 W/m² | - |
| 1777765408 | 21.67° C | 94% | 1010.8 hPa | 0 mm | - | 6 W/m² | - |
| 1777765108 | 21.67° C | 94% | 1010.7 hPa | 0 mm | - | 8 W/m² | - |
| 1777764807 | 21.67° C | 94% | 1010.7 hPa | 0 mm | - | 12 W/m² | - |
| 1777764507 | 21.67° C | 94% | 1010.6 hPa | 0 mm | - | 15 W/m² | - |
| 1777764209 | 21.67° C | 93% | 1010.6 hPa | 0 mm | - | 15 W/m² | - |
| 1777763907 | 21.67° C | 93% | 1010.4 hPa | 0 mm | - | 17 W/m² | - |
| 1777763608 | 21.67° C | 93% | 1010.3 hPa | 0 mm | - | 24 W/m² | - |
| 1777763307 | 21.67° C | 93% | 1010.2 hPa | 0 mm | - | 38 W/m² | - |
| 1777763007 | 21.67° C | 93% | 1010.3 hPa | 0 mm | - | 58 W/m² | - |
| 1777762708 | 21.67° C | 93% | 1010.2 hPa | 0 mm | - | 50 W/m² | - |
| 1777762408 | 21.67° C | 93% | 1010.2 hPa | 0 mm | - | 45 W/m² | - |
| 1777762108 | 21.67° C | 93% | 1010 hPa | 0 mm | - | 37 W/m² | - |
| 1777761807 | 21.67° C | 93% | 1009.7 hPa | 0 mm | - | 49 W/m² | - |
| 1777761507 | 21.67° C | 93% | 1009.8 hPa | 0 mm | - | 52 W/m² | - |
| 1777761207 | 21.67° C | 92% | 1009.8 hPa | 0 mm | - | 52 W/m² | - |
| 1777760907 | 21.67° C | 92% | 1009.7 hPa | 0 mm | - | 56 W/m² | - |
| 1777760607 | 21.67° C | 93% | 1009.8 hPa | 0 mm | - | 69 W/m² | - |
| 1777760307 | 21.67° C | 92% | 1009.6 hPa | 0 mm | - | 63 W/m² | - |
| 1777760007 | 21.67° C | 92% | 1009.5 hPa | 0 mm | - | 75 W/m² | - |
| 1777759707 | 21.67° C | 92% | 1009.3 hPa | 0 mm | - | 91 W/m² | - |
| 1777759407 | 21.67° C | 92% | 1009.5 hPa | 0 mm | - | 84 W/m² | - |
| 1777759107 | 21.67° C | 92% | 1009.1 hPa | 0 mm | - | 76 W/m² | - |
| 1777758808 | 21.67° C | 92% | 1009.1 hPa | 0 mm | - | 90 W/m² | - |
* Rain latest hour (hover to see other rain measurements)
** Current wind speed in m/s (hover to see current wind gust speed)